"Pseudo-MPEC" for C1CUXW5

Created 2026 Mar 15 0:35:08 UT using Find_Orb

Click here for an explanation of pseudo-MPECs

 
 Astrometry: 
     C1CUXW5*1C2026 02 27.49671712 31 11.068+23 03 31.03   ~2RCo 22.00GVNEOCPV00
     C1CUXW5 1C2026 02 27.50234312 31 12.709+23 03 47.12   ~2RCo 22.16GVNEOCPV00
     C1CUXW5 1C2026 02 27.50793612 31 14.365+23 04 03.18   ~2RCo       VNEOCPV00
     C1CUXW5 1C2026 02 27.51352112 31 15.985+23 04 19.88   ~2RCo 22.28GVNEOCPV00
     C1CUXW5 1C2026 02 27.53714012 31 22.955+23 05 28.25   ~2RD5 21.93GVNEOCPV00
     C1CUXW5 1C2026 02 27.53793512 31 23.185+23 05 30.41   ~2RD5 21.90GVNEOCPV00
     C1CUXW5 1C2026 02 27.53873012 31 23.401+23 05 32.78   ~2RD5 22.30GVNEOCPV00
     C1CUXW5 1C2026 02 27.53952412 31 23.675+23 05 34.87   ~2RD5 22.41GVNEOCPV00
     C1CUXW5 0C2026 02 27.57609312 31 35.898+23 07 36.15   ~35FZx20.91GVNEOCPF51
     C1CUXW5 0C2026 02 27.58131512 31 37.518+23 07 52.20   ~35FZ 21.43GVNEOCPF51
     C1CUXW5 0C2026 02 27.58652112 31 38.974+23 08 07.03   ~35FZ 21.68GVNEOCPF51
     C1CUXW5 0C2026 02 27.59173612 31 40.506+23 08 22.75   ~35FZ 21.24GVNEOCPF51
     C1CUXW5  C2026 02 28.36964712 35 39.595+23 46 08.40   ~2S9Z 21.4 GWNEOCPH01
     C1CUXW5  C2026 02 28.37456912 35 41.005+23 46 22.63   ~2S9Z 21.3 GWNEOCPH01
     C1CUXW5  C2026 02 28.38464012 35 43.902+23 46 51.72   ~2S9Z 21.1 GWNEOCPH01
     C1CUXW5  C2026 02 28.39202912 35 46.032+23 47 13.10   ~2S9Z 21.8 GWNEOCPH01

Station data:
(F51) Pan-STARRS 1, Haleakala  (N20.707234 W156.255910)  US/Hawaii.
   Observers J. Herman, T. Lowe, P. Minguez, A. Schultz, I. Smith. Measurers
   K. Chambers, T. de Boer, J. Fairlamb, H. Gao, M. Huber, C.-C. Lin, E.
   Magnier, Y. Ramanjooloo, R. Wainscoat, R. Weryk. 1.8-m Ritchey-Chrétien +
   CCD.
(H01) Magdalena Ridge Observatory, Socorro  (N33.984833 W107.189333)  US/New
   Mexico.  Observers W. H. Ryan, E. V. Ryan. Measurer W. H. Ryan. 2.4-m
   f/8.9 reflector + CCD.
(V00) Kitt Peak-Bok  (N31.963125 W111.600190)  US/Arizona. Measurers T.
   Beuden, V. F. Carvajal, D. Fay, J. B. Fazekas, D. C. Fuls, A. R. Gibbs, A.
   D. Grauer, H. Gröller, J. K. Hogan, R. A. Kowalski, S. M. Larson, G. J.
   Leonard, D. Rankin, R. L. Seaman, F. C. Shelly, K. W. Wierzchoś. 2.25-m
   reflector + 4x4K mosaic CCD.

Orbital elements:  C1CUXW5
   Perihelion 2026 Mar 2.359320 +/- 1.96 TT =  8:37:25.2 (JD 2461101.859320)
Epoch 2026 Feb 28.0 TT = JDT 2461099.5   Earth MOID: 0.1818      AutoNEOCP
M 359.399667586 +/- 0.51            (J2000 ecliptic)
n   0.254451437 +/- 0.0233          Peri.   20.710996 +/- 2.2
a   2.466414757 +/- 0.163           Node   143.842245 +/- 0.36
e   0.52962687 +/- 0.0275           Incl.   12.735044 +/- 0.45
P   3.87346                H 24.14  G  0.15   U 10.2
q 1.160135226 +/- 0.00471    Q 3.772694288 +/- 0.322
15 of 16 observations 2026 Feb. 27-28 (21.5 hr); mean residual 0".17
Residuals in arcseconds: 
260227 V00  .07-  .13+    260227 V00  .23-  .11+    260228 H01  .06-  .02+    
260227 V00  .14-  .14-    260227 V00  .32+  .09-    260228 H01  .10-  .01-    
260227 V00  .11+  .32-    260227 F51( 1.3-  .73-)   260228 H01  .01+  .04-    
260227 V00  .14-  .17+    260227 F51  .30+  .06+    260228 H01  .15+  .02+    
260227 V00  .10+  .17+    260227 F51  .33-  .30-    
260227 V00  .03+  .04+    260227 F51  .03+  .23+    

Ephemerides (geocentric):
Date (UTC) HH   RA             Dec           delta  r     elong  mag " sig PA
---- --------  ------------   ------------  ------ ------ -----  --- --------
2026 03 15 01  13 40 30.221   +32 23 33.95  .22151 1.1694 138.5 22.6  817  62
2026 03 15 02  13 40 39.105   +32 24 29.01  .22162 1.1695 138.4 22.6  820  62
2026 03 15 03  13 40 47.975   +32 25 23.89  .22174 1.1696 138.4 22.6  824  62
2026 03 15 04  13 40 56.831   +32 26 18.60  .22186 1.1696 138.4 22.6  827  62
2026 03 15 05  13 41 05.672   +32 27 13.13  .22198 1.1697 138.4 22.6  831  62
2026 03 15 06  13 41 14.500   +32 28 07.49  .22209 1.1697 138.4 22.6  834  62
2026 03 15 07  13 41 23.314   +32 29 01.67  .22221 1.1698 138.3 22.6  838  62
2026 03 15 08  13 41 32.113   +32 29 55.68  .22233 1.1699 138.3 22.6  841  62
2026 03 15 09  13 41 40.899   +32 30 49.51  .22245 1.1699 138.3 22.6  845  62
2026 03 15 10  13 41 49.670   +32 31 43.17  .22257 1.1700 138.3 22.6  848  62
2026 03 15 11  13 41 58.428   +32 32 36.65  .22268 1.1701 138.2 22.6  852  63
2026 03 15 12  13 42 07.171   +32 33 29.96  .22280 1.1701 138.2 22.6  855  63
2026 03 15 13  13 42 15.900   +32 34 23.10  .22292 1.1702 138.2 22.6  859  63
2026 03 15 14  13 42 24.615   +32 35 16.06  .22304 1.1702 138.2 22.7  863  63
2026 03 15 15  13 42 33.317   +32 36 08.84  .22316 1.1703 138.2 22.7  866  63
2026 03 15 16  13 42 42.004   +32 37 01.46  .22328 1.1704 138.1 22.7  870  63
2026 03 15 17  13 42 50.677   +32 37 53.89  .22340 1.1704 138.1 22.7  873  63
2026 03 15 18  13 42 59.336   +32 38 46.16  .22352 1.1705 138.1 22.7  877  63
2026 03 15 19  13 43 07.981   +32 39 38.25  .22364 1.1706 138.1 22.7  880  63
2026 03 15 20  13 43 16.611   +32 40 30.17  .22376 1.1706 138.1 22.7  884  63
2026 03 15 21  13 43 25.228   +32 41 21.92  .22388 1.1707 138.0 22.7  887  63
2026 03 15 22  13 43 33.831   +32 42 13.50  .22400 1.1708 138.0 22.7  891  63
2026 03 15 23  13 43 42.419   +32 43 04.90  .22412 1.1708 138.0 22.7  895  63
2026 03 16 00  13 43 50.994   +32 43 56.13  .22424 1.1709 138.0 22.7  898  63
2026 03 16 01  13 43 59.554   +32 44 47.19  .22436 1.1709 138.0 22.7  902  63
2026 03 16 02  13 44 08.100   +32 45 38.08  .22448 1.1710 137.9 22.7  905  63
2026 03 16 03  13 44 16.632   +32 46 28.79  .22460 1.1711 137.9 22.7  909  63
2026 03 16 04  13 44 25.150   +32 47 19.33  .22472 1.1711 137.9 22.7  912  63
2026 03 16 05  13 44 33.654   +32 48 09.71  .22484 1.1712 137.9 22.7  916  63
2026 03 16 06  13 44 42.144   +32 48 59.91  .22496 1.1713 137.9 22.7  919  63
2026 03 16 07  13 44 50.620   +32 49 49.94  .22508 1.1713 137.8 22.7  923  63
2026 03 16 08  13 44 59.082   +32 50 39.80  .22521 1.1714 137.8 22.7  927  63
2026 03 16 09  13 45 07.529   +32 51 29.49  .22533 1.1715 137.8 22.7  930  63
2026 03 16 10  13 45 15.963   +32 52 19.01  .22545 1.1715 137.8 22.7  934  63
2026 03 16 11  13 45 24.382   +32 53 08.35  .22557 1.1716 137.8 22.7  937  63
2026 03 16 12  13 45 32.787   +32 53 57.53  .22569 1.1717 137.7 22.7  941  63
2026 03 16 13  13 45 41.178   +32 54 46.54  .22582 1.1717 137.7 22.7  944  63
2026 03 16 14  13 45 49.555   +32 55 35.38  .22594 1.1718 137.7 22.7  948  63
2026 03 16 15  13 45 57.918   +32 56 24.05  .22606 1.1719 137.7 22.7  952  63
2026 03 16 16  13 46 06.267   +32 57 12.55  .22618 1.1720 137.7 22.7  955  63
2026 03 16 17  13 46 14.602   +32 58 00.88  .22631 1.1720 137.6 22.7  959  63
2026 03 16 18  13 46 22.923   +32 58 49.05  .22643 1.1721 137.6 22.7  962  63
2026 03 16 19  13 46 31.229   +32 59 37.04  .22655 1.1722 137.6 22.7  966  63
2026 03 16 20  13 46 39.522   +33 00 24.87  .22668 1.1722 137.6 22.7  969  63
2026 03 16 21  13 46 47.800   +33 01 12.52  .22680 1.1723 137.6 22.7  973  63
2026 03 16 22  13 46 56.064   +33 02 00.01  .22693 1.1724 137.5 22.7  977  63
2026 03 16 23  13 47 04.314   +33 02 47.34  .22705 1.1724 137.5 22.7  980  63
2026 03 17 00  13 47 12.550   +33 03 34.49  .22717 1.1725 137.5 22.7  984  63